KM4KMS Weather Reports


time (UTC)temp
C
wind
direction
speed
KPH
gust
KPH
rain 1hr
cm
rain 24hr
cm
rain mn
cm
humidity
%
barometer
mb
20260504035208 12 210 9.7 11.3 0.00 0.00 0.00 62 1013.0
20260504034705 12 213 4.8 9.7 0.00 0.00 0.00 63 1012.8
20260504034202 12 180 4.8 11.3 0.00 0.00 0.00 63 1012.8
20260504033700 12 177 6.4 8.0 0.00 0.00 0.00 63 1013.1
20260504033156 12 228 6.4 8.0 0.00 0.00 0.00 64 1013.0
20260504032653 12 207 4.8 9.7 0.00 0.00 0.00 65 1012.9
20260504032151 12 165 4.8 8.0 0.00 0.00 0.00 64 1013.0
20260504031647 12 158 4.8 4.8 0.00 0.00 0.00 64 1013.2
20260504031144 12 198 3.2 4.8 0.00 0.00 0.00 64 1013.1
20260504030640 12 162 1.6 4.8 0.00 0.00 0.00 65 1013.4
20260504030137 12 175 1.6 4.8 0.00 0.00 0.00 64 1013.3
20260504025634 12 192 1.6 1.6 0.00 0.00 0.00 64 1013.3
20260504025131 12 171 1.6 4.8 0.00 0.00 0.00 64 1013.3
20260504024628 12 164 1.6 8.0 0.00 0.00 0.00 64 1013.5
20260504024125 12 158 3.2 3.2 0.00 0.00 0.00 64 1013.4
20260504023621 12 157 1.6 3.2 0.00 0.00 0.00 63 1013.5
20260504023117 12 139 3.2 3.2 0.00 0.00 0.00 63 1013.5
20260504022614 12 104 1.6 1.6 0.00 0.00 0.00 62 1013.4
20260504022110 12 141 1.6 3.2 0.00 0.00 0.00 62 1013.3
20260504021608 12 184 3.2 3.2 0.00 0.00 0.00 63 1013.5
20260504021104 12 206 0.0 1.6 0.00 0.00 0.00 63 1013.4
20260504020601 11 178 3.2 3.2 0.00 0.00 0.00 63 1013.5
20260504020057 12 209 0.0 1.6 0.00 0.00 0.00 64 1013.4
20260504015554 11 319 0.0 1.6 0.00 0.00 0.00 64 1013.6
20260504015050 11 357 0.0 0.0 0.00 0.00 0.00 63 1013.3
20260504014546 12 357 0.0 0.0 0.00 0.00 0.00 61 1013.6
20260504014044 12 357 0.0 1.6 0.00 0.00 0.00 60 1013.6
20260504013541 12 357 0.0 0.0 0.00 0.00 0.00 60 1013.7
20260504013038 12 357 0.0 0.0 0.00 0.00 0.00 59 1013.6
20260504012536 12 353 0.0 1.6 0.00 0.00 0.00 58 1013.7
20260504012033 13 355 0.0 0.0 0.00 0.00 0.00 59 1013.5
20260504011530 13 3 0.0 0.0 0.00 0.00 0.00 57 1013.3
20260504011026 13 349 0.0 0.0 0.00 0.00 0.00 56 1013.3
20260504010522 13 318 0.0 0.0 0.00 0.00 0.00 55 1013.2
20260504010018 13 229 0.0 1.6 0.00 0.00 0.00 55 1013.2
20260504005515 14 236 1.6 1.6 0.00 0.00 0.00 54 1013.0
20260504005012 14 233 1.6 3.2 0.00 0.00 0.00 53 1013.1
20260504004510 14 257 6.4 4.8 0.00 0.00 0.00 52 1013.1
20260504004007 14 231 4.8 4.8 0.00 0.00 0.00 53 1012.8
20260504003503 14 239 4.8 4.8 0.00 0.00 0.00 52 1012.6
20260504003000 14 242 3.2 4.8 0.00 0.00 0.00 52 1012.8
20260504002457 15 231 3.2 8.0 0.00 0.00 0.00 52 1012.6
20260504001954 15 251 4.8 11.3 0.00 0.00 0.00 51 1012.8
20260504001451 15 229 9.7 9.7 0.00 0.00 0.00 50 1012.8
20260504000948 15 193 4.8 4.8 0.00 0.00 0.00 49 1012.5
20260504000445 15 216 4.8 8.0 0.00 0.00 0.00 48 1012.7
20260503235942 15 238 11.3 14.5 0.00 0.00 0.00 47 1012.7
20260503235440 15 183 6.4 4.8 0.00 0.00 0.00 48 1012.7
20260503234937 16 240 6.4 8.0 0.00 0.00 0.00 48 1012.6
20260503234435 16 253 9.7 16.1 0.00 0.00 0.00 46 1012.7
20260503233933 16 217 8.0 20.9 0.00 0.00 0.00 46 1012.6
20260503233429 16 270 11.3 12.9 0.00 0.00 0.00 45 1012.7
20260503232925 16 242 8.0 12.9 0.00 0.00 0.00 45 1012.5
20260503232422 16 227 12.9 17.7 0.00 0.00 0.00 43 1012.5
20260503231920 16 258 9.7 12.9 0.00 0.00 0.00 44 1012.8
20260503231417 16 255 6.4 8.0 0.00 0.00 0.00 44 1013.0
20260503230914 16 231 4.8 11.3 0.00 0.00 0.00 44 1013.2
20260503230410 17 216 14.5 20.9 0.00 0.00 0.00 42 1013.1
20260503225908 16 250 8.0 11.3 0.00 0.00 0.00 43 1013.5
20260503225404 16 266 6.4 9.7 0.00 0.00 0.00 44 1013.4
20260503224900 16 212 8.0 9.7 0.00 0.00 0.00 44 1013.4
20260503224357 16 240 4.8 9.7 0.00 0.00 0.00 44 1013.4
20260503223855 16 240 6.4 4.8 0.00 0.00 0.00 44 1013.6
20260503223353 16 237 11.3 16.1 0.00 0.00 0.00 42 1013.7
20260503222848 16 254 14.5 20.9 0.00 0.00 0.00 41 1013.7
20260503222347 16 277 8.0 12.9 0.00 0.00 0.00 43 1013.9
20260503221844 17 211 14.5 14.5 0.00 0.00 0.00 41 1013.8
20260503221343 17 246 6.4 14.5 0.00 0.00 0.00 42 1013.8
20260503220838 17 254 11.3 14.5 0.00 0.00 0.00 42 1013.8
20260503220336 17 245 12.9 16.1 0.00 0.00 0.00 42 1014.0
20260503215832 17 248 8.0 14.5 0.00 0.00 0.00 42 1014.1
20260503215330 17 240 11.3 22.5 0.00 0.00 0.00 41 1014.1
20260503214827 17 191 12.9 14.5 0.00 0.00 0.00 41 1014.1
20260503214324 17 231 16.1 16.1 0.00 0.00 0.00 40 1014.3
20260503213822 17 206 12.9 17.7 0.00 0.00 0.00 39 1014.3
20260503213319 17 255 8.0 16.1 0.00 0.00 0.00 41 1014.3
20260503212816 17 250 12.9 17.7 0.00 0.00 0.00 39 1014.4
20260503212314 17 247 8.0 14.5 0.00 0.00 0.00 41 1014.0
20260503211811 16 225 11.3 17.7 0.00 0.00 0.00 40 1014.2
20260503211308 17 260 17.7 22.5 0.00 0.00 0.00 40 1014.1
20260503210807 17 221 12.9 14.5 0.00 0.00 0.00 41 1014.4
20260503210306 17 223 8.0 12.9 0.00 0.00 0.00 40 1014.1
20260503205800 16 234 17.7 25.7 0.00 0.00 0.00 40 1014.6
20260503205257 17 199 16.1 16.1 0.00 0.00 0.00 39 1014.9
20260503204753 17 203 9.7 14.5 0.00 0.00 0.00 42 1014.7
20260503204251 17 233 14.5 17.7 0.00 0.00 0.00 40 1014.7
20260503203749 17 260 12.9 20.9 0.00 0.00 0.00 41 1014.9
20260503203246 16 241 20.9 22.5 0.00 0.00 0.00 39 1015.0
20260503202743 16 174 12.9 16.1 0.00 0.00 0.00 42 1015.0
20260503202241 17 227 11.3 12.9 0.00 0.00 0.00 41 1015.2
20260503201738 16 262 8.0 12.9 0.00 0.00 0.00 43 1015.2
20260503201236 16 227 19.3 22.5 0.00 0.00 0.00 42 1015.6
20260503200732 16 163 9.7 22.5 0.00 0.00 0.00 43 1015.3
20260503200228 17 226 11.3 17.7 0.00 0.00 0.00 42 1015.6
20260503195725 16 215 17.7 20.9 0.00 0.00 0.00 43 1016.0
20260503195222 16 200 9.7 14.5 0.00 0.00 0.00 46 1015.9
20260503194720 16 258 9.7 14.5 0.00 0.00 0.00 41 1016.0
20260503194215 16 241 19.3 17.7 0.00 0.00 0.00 44 1016.0
20260503193712 16 227 12.9 20.9 0.00 0.00 0.00 42 1016.3
20260503193208 16 236 4.8 16.1 0.00 0.00 0.00 44 1016.5
20260503192703 16 255 16.1 16.1 0.00 0.00 0.00 40 1016.4
20260503192159 16 284 14.5 22.5 0.00 0.00 0.00 43 1016.7
20260503191655 16 202 14.5 17.7 0.00 0.00 0.00 43 1016.5
20260503191153 16 244 11.3 20.9 0.00 0.00 0.00 43 1016.7
20260503190650 16 254 9.7 14.5 0.00 0.00 0.00 43 1017.0
20260503190146 15 266 14.5 17.7 0.00 0.00 0.00 41 1017.0
20260503185643 15 217 6.4 12.9 0.00 0.00 0.00 42 1016.8
20260503185138 16 207 14.5 16.1 0.00 0.00 0.00 41 1017.1
20260503184634 15 274 11.3 16.1 0.00 0.00 0.00 39 1017.1
20260503184130 15 228 9.7 17.7 0.00 0.00 0.00 46 1017.3
20260503183627 15 259 12.9 14.5 0.00 0.00 0.00 40 1017.1
20260503183124 15 235 14.5 20.9 0.00 0.00 0.00 43 1017.5
20260503182622 15 267 11.3 16.1 0.00 0.00 0.00 42 1017.3
20260503182120 15 259 14.5 17.7 0.00 0.00 0.00 42 1017.5
20260503181617 15 314 11.3 17.7 0.00 0.00 0.00 42 1017.5
20260503181114 15 273 12.9 17.7 0.00 0.00 0.00 44 1017.6
20260503180611 15 271 4.8 8.0 0.00 0.00 0.00 46 1017.8
20260503180109 15 240 8.0 17.7 0.00 0.00 0.00 46 1017.6
20260503175605 14 298 4.8 8.0 0.00 0.00 0.00 46 1017.6
20260503175102 15 246 22.5 24.1 0.00 0.00 0.00 40 1017.7
20260503174559 15 238 9.7 11.3 0.00 0.00 0.00 43 1018.1
20260503174056 15 235 11.3 14.5 0.00 0.00 0.00 45 1018.0
20260503173551 15 242 11.3 14.5 0.00 0.00 0.00 41 1018.2
20260503173048 15 257 9.7 14.5 0.00 0.00 0.00 42 1018.2
20260503172545 14 241 11.3 17.7 0.00 0.00 0.00 40 1018.4
20260503172042 13 224 11.3 16.1 0.00 0.00 0.00 40 1018.4
20260503171538 14 182 11.3 17.7 0.00 0.00 0.00 46 1018.6
20260503171036 13 231 8.0 20.9 0.00 0.00 0.00 44 1018.5
20260503170532 15 186 11.3 14.5 0.00 0.00 0.00 42 1018.8
20260503150925 12 285 4.8 8.0 0.00 0.00 0.00 50 1019.5
20260503150421 13 280 8.0 11.3 0.00 0.00 0.00 52 1019.6
20260503131314 8 236 9.7 11.3 0.00 0.00 0.00 69 1019.8
20260503130812 8 239 6.4 12.9 0.00 0.00 0.00 72 1019.9
20260503130309 8 209 8.0 14.5 0.00 0.00 0.00 73 1019.8
20260503110703 0 3 0.0 0.0 0.00 0.00 0.00 99 1019.4
20260503110200 0 2 0.0 0.0 0.00 0.00 0.00 99 1019.2
20260503100126 0 343 0.0 0.0 0.00 0.00 0.00 96 1018.5
20260503081516 0 339 0.0 0.0 0.00 0.00 0.00 98 1018.5
20260503081013 0 339 0.0 0.0 0.00 0.00 0.00 98 1018.4
20260503080509 0 339 0.0 0.0 0.00 0.00 0.00 98 1018.4
20260503072443 1 336 1.6 1.6 0.00 0.00 0.00 95 1018.4
20260503071940 1 336 0.0 1.6 0.00 0.00 0.00 95 1018.3
20260503071437 1 336 1.6 1.6 0.00 0.00 0.00 95 1018.1
20260503070933 1 336 1.6 1.6 0.00 0.00 0.00 94 1018.2
20260503070430 1 340 3.2 3.2 0.00 0.00 0.00 94 1018.1
20260503054843 3 4 0.0 1.6 0.00 0.00 0.00 83 1018.6
20260503054339 3 4 0.0 0.0 0.00 0.00 0.00 83 1018.5
20260503053837 2 4 0.0 1.6 0.00 0.00 0.00 83 1018.4
20260503053336 2 4 0.0 0.0 0.00 0.00 0.00 83 1018.6
20260503052831 2 4 0.0 0.0 0.00 0.00 0.00 84 1018.5
20260503052329 2 5 0.0 0.0 0.00 0.00 0.00 82 1018.3
20260503051825 3 5 0.0 0.0 0.00 0.00 0.00 81 1018.6
20260503051321 3 5 0.0 0.0 0.00 0.00 0.00 80 1018.3
20260503050818 3 5 0.0 0.0 0.00 0.00 0.00 79 1018.4
20260503050314 3 5 0.0 0.0 0.00 0.00 0.00 77 1018.8
20260503045812 3 4 0.0 0.0 0.00 0.00 0.00 75 1018.4
20260503045310 4 4 0.0 0.0 0.00 0.00 0.00 75 1018.5
20260503044806 5 4 0.0 0.0 0.00 0.00 0.00 72 1018.5
20260503044303 5 4 0.0 0.0 0.00 0.00 0.00 72 1018.4
20260503043800 5 4 0.0 1.6 0.00 0.00 0.00 73 1018.3
20260503043257 5 4 1.6 1.6 0.00 0.00 0.00 74 1018.3
20260503042753 5 3 0.0 1.6 0.00 0.00 0.00 75 1018.2
20260503042250 5 6 0.0 0.0 0.00 0.00 0.00 72 1018.4
20260503041745 5 6 0.0 0.0 0.00 0.00 0.00 72 1018.5
20260503041244 5 5 0.0 1.6 0.00 0.00 0.00 72 1018.4
20260503040741 5 5 1.6 1.6 0.00 0.00 0.00 72 1018.6
20260503040239 5 7 1.6 1.6 0.00 0.00 0.00 73 1018.4
20260503035735 5 8 0.0 1.6 0.00 0.00 0.00 75 1018.5